RH
64 67 69 61 59 60 60 60 62 63 57 80 86 92 99 99 99 99 99 99 100 100 100 100 100 99 100 95 93 93 90 84 88 89 77 76 78 79 71 64 60 60 62
60 67 68 59 60 60 66 63 63 69 72 72 82 92 94 99 99 99 99 99 100 99 100 100 100 100 100 100 99 98 90 85 83 80 68 71 56 59 69 64 60 63 63
61 60 60 59 59 62 65 63 66 67 75 79 74 75 79 81 94 99 98 99 99 99 100 100 100 100 100 100 98 99 97 88 79 91 75 64 59 48 51 63 63 64 64
56 57 55 56 60 65 65 64 65 64 67 76 78 81 78 74 83 91 96 98 98 99 98 100 95 95 96 100 100 100 100 97 92 80 88 81 73 67 61 51 57 64 63
58 57 59 58 59 64 67 68 66 65 70 74 78 77 83 80 80 82 84 91 96 99 99 99 99 95 98 97 96 90 94 97 99 94 85 87 86 86 85 79 62 59 61
56 57 61 60 56 58 64 64 66 67 70 71 77 82 84 80 77 80 83 86 90 92 99 100 100 99 99 100 99 100 100 94 84 91 96 98 84 80 83 85 74 72 70
56 56 53 55 58 61 67 63 67 68 71 71 74 79 83 82 76 79 82 84 88 92 97 100 95 97 100 99 99 98 100 99 100 95 93 98 93 97 100 98 92 88 78
58 59 59 61 61 67 73 66 67 71 69 70 73 74 77 72 75 77 76 79 84 89 94 98 100 100 97 96 97 98 84 94 99 99 100 99 98 92 98 100 98 94 79
56 56 60 66 66 69 74 67 69 74 70 70 71 73 76 78 78 78 78 78 80 75 83 88 97 99 100 93 92 92 86 90 94 96 96 97 98 99 100 98 100 98 95
55 57 61 66 70 73 67 59 73 72 71 70 71 73 76 78 80 81 80 81 80 74 80 80 86 89 97 91 88 87 86 85 90 94 96 96 97 93 98 95 97 100 98
50 55 60 69 74 72 61 66 71 70 70 70 73 76 80 81 81 83 85 86 83 81 83 86 87 88 94 89 88 88 84 82 84 88 94 96 97 96 93 96 96 100 100
49 53 65 71 69 60 63 69 74 70 71 73 76 81 82 80 83 85 86 87 84 85 87 90 90 89 96 91 90 89 89 86 84 85 87 89 94 98 99 98 97 99 97
51 58 55 52 58 59 64 69 72 73 74 74 76 80 83 83 86 87 85 83 84 86 88 90 91 91 97 96 93 93 92 88 87 86 87 87 87 99 99 98 99 98 95
50 42 42 50 56 62 65 72 72 73 75 76 75 78 85 85 89 89 88 88 90 88 90 92 92 92 90 91 94 93 94 90 87 87 88 86 86 88 94 88 89 86 88
44 40 44 52 58 63 68 71 74 78 78 76 76 83 88 88 92 92 92 94 95 92 92 91 86 85 79 76 89 89 86 84 87 83 81 82 88 89 85 88 90 90 85
40 38 45 54 59 63 64 71 75 76 76 75 77 81 82 86 91 92 93 92 91 91 92 90 86 84 78 80 84 87 85 82 83 80 79 81 80 82 90 90 88 91 89
37 39 46 53 58 61 66 69 72 74 75 74 78 79 76 79 84 85 83 84 85 85 83 83 82 80 83 84 84 83 83 80 77 79 82 81 78 87 86 87 89 86 89
35 40 46 55 59 63 67 72 72 73 73 71 71 74 74 73 76 77 74 82 80 78 79 81 86 86 85 83 77 81 81 78 81 86 91 96 95 96 100 100 99 98 98
35 40 47 54 61 64 69 69 71 70 68 69 70 73 78 73 73 79 81 82 78 78 77 74 77 79 79 80 76 79 79 82 87 95 96 98 96 95 92 98 96 95 95
42 46 54 59 62 66 67 70 70 67 66 71 73 74 75 70 68 73 74 77 76 76 77 77 76 78 76 76 83 86 85 88 91 92 94 94 95 86 91 97 97 96 93
48 52 58 59 62 64 69 71 70 62 67 69 76 75 72 71 70 73 74 73 72 77 80 81 83 85 84 89 95 89 93 93 94 93 92 91 92 86 92 89 98 97 96
52 57 60 64 68 66 71 64 55 57 62 66 74 73 75 76 75 78 76 75 76 81 81 83 89 92 92 92 93 92 93 92 98 96 95 91 93 85 83 83 80 77 90
50 59 60 70 74 68 61 51 54 57 63 69 75 80 81 82 82 80 80 83 87 86 85 90 90 89 89 92 92 95 90 93 100 99 97 99 97 90 91 89 79 83 98
51 58 64 69 74 68 42 39 47 55 66 75 80 81 83 82 82 88 96 96 95 94 94 90 90 91 90 87 91 96 99 97 97 97 96 95 91 91 91 91 89 90 90
56 62 62 65 66 57 46 48 52 59 74 78 82 83 87 87 93 100 100 100 100 98 99 96 94 91 92 94 96 95 95 98 96 94 95 90 87 86 84 85 86 88 89
60 64 65 64 62 49 52 54 57 62 75 81 83 82 93 92 85 82 88 90 90 88 87 83 86 87 95 95 92 88 90 89 85 96 92 89 89 89 88 89 90 90 92
Wind_Speed
11 15 19 20 21 23 24 25 28 31 32 28 27 19 21 24 23 23 21 18 11 12 18 18 19 20 21 24 24 23 23 25 21 19 23 25 26 29 29 27 27 27 27
10 13 14 18 22 23 24 25 26 26 27 23 21 14 18 15 20 23 24 24 22 16 7 8 16 20 20 20 21 23 24 24 21 17 17 10 21 23 23 24 25 24 22
9 11 13 15 18 21 23 24 24 25 26 24 22 19 15 17 23 28 27 23 23 22 20 14 9 7 11 20 21 22 24 26 25 21 16 8 10 14 13 15 18 17 15
9 11 12 14 17 18 19 21 23 24 24 24 23 24 22 22 21 21 24 25 23 22 21 21 17 17 13 14 7 6 17 25 25 23 23 30 28 13 14 21 16 18 20
6 8 9 11 12 15 16 17 17 22 24 24 24 22 22 20 19 20 23 24 24 25 25 22 21 19 19 15 15 13 14 21 15 24 23 19 23 25 14 12 18 22 18
3 4 4 8 12 14 17 18 17 19 20 22 23 22 21 21 23 24 24 23 23 23 24 24 25 22 19 20 16 18 15 14 11 20 22 16 14 14 16 10 15 17 21
2 0 3 6 8 12 15 17 16 17 17 19 21 21 20 20 21 22 22 23 22 24 26 24 23 24 21 20 19 19 19 18 18 15 16 19 17 19 16 17 10 9 13
4 4 2 1 5 8 11 13 13 14 16 17 18 19 19 18 19 20 20 20 21 21 22 22 21 21 24 23 20 18 21 20 21 19 17 14 16 19 20 14 12 9 13
6 5 4 3 1 6 9 11 10 11 14 15 15 17 17 19 19 19 19 20 20 21 21 21 21 20 19 24 22 20 23 22 20 21 22 21 20 20 18 19 17 12 10
6 6 5 5 3 3 5 8 8 10 12 14 14 14 14 16 16 17 19 21 22 23 22 21 20 20 20 22 22 21 21 21 20 20 19 17 17 18 22 20 20 20 20
6 4 4 6 5 5 6 7 7 9 11 12 12 12 12 14 15 15 17 19 20 21 20 20 19 19 19 21 21 20 21 21 20 19 20 19 19 21 21 21 19 21 20
6 7 7 9 9 8 7 6 6 7 8 9 10 11 12 14 15 15 17 19 19 19 19 19 18 18 17 20 22 22 22 23 22 21 19 20 22 21 17 20 20 20 23
9 9 11 10 11 9 7 5 5 6 7 8 9 11 12 14 14 16 18 19 19 19 18 18 18 19 17 18 20 20 21 21 20 21 20 20 20 19 20 21 19 20 23
11 10 10 10 10 8 7 7 5 5 5 7 8 10 10 12 11 13 15 17 17 17 18 16 16 16 16 15 21 22 22 22 20 20 19 19 19 19 21 21 21 22 24
12 11 10 12 11 9 8 7 5 4 5 6 7 8 8 9 10 12 13 14 15 16 16 15 15 16 16 16 22 23 22 22 22 21 20 19 21 19 21 20 21 22 23
13 12 13 13 12 11 10 9 6 4 4 6 7 8 9 9 11 12 13 14 15 16 16 16 17 18 17 20 21 22 24 22 21 24 23 22 21 19 21 20 21 21 21
15 13 16 15 14 13 11 9 6 4 4 6 7 9 11 11 12 13 14 15 16 16 17 16 17 18 17 21 22 24 24 23 22 24 23 24 20 22 22 24 24 22 22
15 16 16 15 14 12 10 8 5 3 4 6 7 9 11 13 14 13 16 15 15 17 18 18 19 19 18 21 24 25 23 23 22 22 22 22 23 22 25 26 24 23 21
22 20 18 17 14 12 10 7 3 3 4 5 6 8 9 11 13 13 16 15 17 18 17 18 18 19 20 21 23 25 24 22 22 20 22 22 26 26 30 28 27 26 25
22 20 18 16 14 12 9 6 2 1 2 3 5 7 8 10 12 13 14 15 17 17 18 18 18 19 20 22 23 23 23 24 24 24 23 25 27 33 32 31 30 30 27
22 20 19 18 15 14 11 6 3 2 1 3 5 7 7 9 11 12 14 17 18 18 18 18 18 18 19 21 22 23 23 22 27 28 28 28 30 34 34 35 32 31 34
23 22 20 17 15 15 11 7 5 4 1 2 5 7 8 10 12 14 15 17 18 19 19 19 19 18 20 21 23 27 23 26 26 28 29 31 34 38 35 33 30 29 30
25 23 21 18 16 15 11 8 6 4 2 2 5 8 9 10 12 14 15 17 17 18 19 18 19 21 23 24 25 26 29 29 28 29 33 36 37 35 31 28 29 29 22
25 23 21 19 17 15 12 8 7 4 3 3 6 8 10 14 13 13 14 15 17 19 18 20 23 25 25 25 27 31 30 29 30 30 31 33 32 29 26 25 23 22 21
23 23 22 19 17 16 13 10 7 5 4 5 6 8 10 13 14 13 14 16 15 19 22 23 26 28 28 29 33 34 34 33 32 36 29 26 24 24 24 23 22 22 21
23 21 19 17 17 17 14 11 8 7 5 4 6 7 9 10 11 15 16 15 18 21 21 23 26 31 28 29 34 35 36 34 33 29 23 23 23 23 24 23 23 21 21
Wind_Direction
20 26 26 27 29 31 32 31 28 26 24 19 13 19 13 17 17 21 16 8 338 274 267 268 266 265 258 261 259 258 259 260 262 264 270 273 271 265 262 261 261 262 263
51 40 34 29 27 28 28 26 27 26 27 25 24 24 15 17 20 19 17 18 18 13 6 276 267 266 257 259 254 253 257 259 258 253 269 280 275 263 259 254 256 256 257
71 61 54 49 43 32 27 29 29 26 25 26 27 29 28 27 18 16 16 14 13 20 19 18 9 317 275 262 263 256 251 254 251 236 243 267 263 293 266 253 253 255 249
84 71 65 55 48 39 34 33 31 30 30 31 32 32 31 29 18 12 12 17 14 12 15 14 19 20 25 21 21 302 275 257 252 249 237 241 257 273 281 269 261 270 268
77 73 63 57 53 46 37 34 39 35 32 32 36 35 32 24 18 21 19 13 11 13 13 18 4 17 17 16 7 353 344 20 321 262 255 242 240 244 249 273 269 265 264
106 86 67 57 46 40 34 32 41 40 36 33 33 34 35 27 23 18 18 13 9 7 5 7 14 10 6 12 20 7 19 16 1 356 13 315 268 253 245 247 265 268 268
211 9 44 41 35 31 28 28 34 39 37 34 32 30 30 27 27 23 17 11 8 6 3 5 7 7 0 2 8 358 360 360 1 18 6 332 334 346 318 334 297 282 289
235 238 231 4 15 15 19 26 35 39 36 36 36 34 32 28 28 21 21 15 7 2 359 2 4 6 8 8 5 359 359 354 357 356 342 340 320 309 307 293 306 302 291
230 232 221 210 46 24 23 29 40 47 38 34 37 39 35 31 29 26 24 15 10 3 360 2 0 1 357 359 2 0 0 1 357 357 351 346 326 324 289 292 283 267 284
222 217 211 183 137 52 55 50 60 53 37 36 39 38 34 29 27 25 20 15 7 5 1 1 0 358 356 359 360 358 354 355 355 355 351 343 336 331 319 321 317 302 269
197 180 166 152 135 108 90 80 69 46 38 41 40 38 31 26 23 21 15 9 2 1 1 359 359 357 353 356 356 356 353 355 351 348 342 336 334 335 336 336 330 320 323
182 162 153 140 135 125 112 96 75 54 45 40 38 33 27 20 18 15 8 2 360 359 359 358 357 356 352 356 357 353 351 350 348 345 343 336 337 336 347 341 332 329 323
154 151 143 139 139 138 133 123 89 63 47 37 33 26 23 17 15 8 2 0 358 358 358 358 355 351 348 350 351 347 345 344 341 340 337 334 336 334 338 333 327 323 320
164 153 146 147 149 150 149 141 109 75 48 39 32 27 22 15 11 3 1 359 359 357 355 352 348 348 345 343 346 344 340 337 335 336 332 327 326 325 325 326 321 321 317
170 165 163 166 164 159 152 147 134 108 60 47 34 28 21 13 6 1 359 357 358 354 352 348 346 344 344 339 340 338 334 330 325 328 326 324 321 327 321 322 319 321 320
179 175 174 174 175 169 161 156 142 104 71 44 30 24 14 7 4 358 357 356 354 352 349 346 340 337 334 335 333 333 329 326 322 323 323 321 319 318 323 320 321 311 311
181 182 184 182 177 172 162 156 143 98 62 41 28 22 18 10 2 359 356 353 349 345 340 336 333 329 324 333 331 330 327 322 319 320 321 321 319 321 320 319 316 312 310
181 184 183 178 175 167 162 149 129 80 50 34 27 17 10 4 358 355 353 346 344 340 335 331 329 326 322 329 330 327 324 321 319 320 320 319 318 318 320 321 317 314 310
183 182 183 177 172 171 164 152 119 55 35 21 13 1 353 350 348 344 344 343 337 332 331 328 325 322 321 321 331 331 326 321 319 318 318 315 314 314 319 315 310 307 305
171 171 174 172 172 173 170 159 134 60 38 17 356 348 340 343 347 345 341 336 333 326 324 318 316 316 318 322 327 336 326 321 322 319 315 313 312 317 317 311 308 303 303
165 167 170 175 176 174 173 170 170 166 112 345 334 333 332 336 335 337 337 337 334 331 327 325 324 322 325 325 324 335 326 322 318 316 315 314 314 316 312 313 304 297 303
161 168 170 174 174 177 177 179 180 175 204 310 327 330 323 323 327 328 329 334 336 332 333 331 329 327 328 325 322 323 323 323 313 309 309 311 310 314 315 311 308 311 310
164 169 170 169 175 182 188 177 175 183 229 305 327 331 330 328 327 324 322 327 335 336 335 333 328 327 327 323 323 324 325 322 315 309 308 311 311 310 307 304 310 311 305
166 168 167 171 178 187 189 183 182 198 237 305 325 333 334 334 333 329 328 331 337 338 337 334 329 324 325 327 327 325 324 324 321 317 313 309 309 308 308 308 309 306 307
168 170 173 177 184 188 190 193 203 225 245 299 322 331 334 341 344 343 336 329 328 338 330 326 326 325 322 323 325 325 322 320 319 318 311 309 311 310 312 310 309 307 306
168 173 179 181 185 189 193 201 214 229 248 295 321 325 331 343 343 340 330 331 330 331 330 328 321 321 317 324 326 324 322 324 324 315 310 311 311 309 309 309 307 306 304